TimePDT,TemperatureF,Dew PointF,Humidity,Sea Level PressureIn,VisibilityMPH,Wind Direction,Wind SpeedMPH,Gust SpeedMPH,PrecipitationIn,Events,Conditions,WindDirDegrees,DateUTC
12:52 AM,46.0,19.0,34,30.20,10.0,NE,16.1,-,N/A,,Clear,40,2013-03-10 08:52:00
1:52 AM,45.0,19.0,36,30.21,10.0,NE,15.0,-,N/A,,Clear,50,2013-03-10 09:52:00
3:52 AM,44.1,19.0,37,30.22,10.0,NE,15.0,-,N/A,,Clear,50,2013-03-10 10:52:00
4:52 AM,39.9,21.9,49,30.24,10.0,NNE,12.7,-,N/A,,Clear,30,2013-03-10 11:52:00
5:52 AM,41.0,19.9,43,30.25,10.0,NE,12.7,-,N/A,,Clear,40,2013-03-10 12:52:00
6:52 AM,39.0,21.0,49,30.27,10.0,NE,13.8,-,N/A,,Clear,40,2013-03-10 13:52:00
7:52 AM,42.1,19.9,41,30.30,10.0,NE,13.8,-,N/A,,Clear,40,2013-03-10 14:52:00
8:52 AM,48.0,19.9,33,30.32,10.0,North,13.8,-,N/A,,Clear,10,2013-03-10 15:52:00
9:52 AM,51.1,18.0,27,30.31,10.0,NE,16.1,-,N/A,,Clear,50,2013-03-10 16:52:00
10:52 AM,54.0,17.1,23,30.29,10.0,NNE,13.8,-,N/A,,Clear,20,2013-03-10 17:52:00
11:52 AM,57.0,16.0,20,30.26,10.0,NNE,10.4,-,N/A,,Clear,30,2013-03-10 18:52:00
12:52 PM,59.0,12.9,16,30.24,10.0,ENE,9.2,-,N/A,,Clear,60,2013-03-10 19:52:00
1:52 PM,62.1,16.0,17,30.22,10.0,North,10.4,-,N/A,,Clear,360,2013-03-10 20:52:00
2:52 PM,63.0,15.1,16,30.19,10.0,NE,10.4,-,N/A,,Clear,50,2013-03-10 21:52:00
3:52 PM,64.9,14.0,14,30.17,10.0,NNE,8.1,-,N/A,,Clear,30,2013-03-10 22:52:00
4:52 PM,66.0,14.0,13,30.16,10.0,NE,4.6,-,N/A,,Clear,50,2013-03-10 23:52:00
5:52 PM,63.0,15.1,16,30.14,10.0,SE,10.4,-,N/A,,Clear,130,2013-03-11 00:52:00
6:52 PM,60.1,16.0,18,30.16,10.0,East,9.2,-,N/A,,Clear,100,2013-03-11 01:52:00
7:52 PM,55.9,19.9,25,30.18,10.0,East,5.8,-,N/A,,Clear,90,2013-03-11 02:52:00
8:52 PM,53.1,19.9,27,30.18,10.0,NNE,4.6,-,N/A,,Clear,20,2013-03-11 03:52:00
9:52 PM,48.9,26.1,41,30.20,10.0,East,4.6,-,N/A,,Clear,100,2013-03-11 04:52:00
10:52 PM,46.0,27.0,47,30.21,10.0,Calm,Calm,-,N/A,,Clear,0,2013-03-11 05:52:00
11:52 PM,44.1,27.0,51,30.20,10.0,East,3.5,-,N/A,,Clear,100,2013-03-11 06:52:00
12:52 AM,45.0,25.0,46,30.19,10.0,Calm,Calm,-,N/A,,Clear,0,2013-03-11 07:52:00